星链-31970 (STARLINK-31970 )

导读

STARLINK-31970是美国SpaceX星链星座的组网卫星,于2024年6月1日发射升空,归入星链低轨互联网卫星星座序列。星链计划旨在构建全球覆盖的卫星互联网星座,该卫星承担为全球偏远地区、海洋空域等提供宽带网络接入服务的任务,进一步扩充了星链星座的服务覆盖能力与网络稳定性。

Basic Information
目录编号:
59928
目录名称:
STARLINK-31970
国际标识:
2024-106G
轨道中心:
EARTH
卫星名称:
星链-31970
卫星全名:
星链-31970 (STARLINK-31970 )
卫星状态:
在轨 (已飞行747 天)
发射日期:
2024-06-01 UTC
国别 :
美国 (US)
星等 :
--
Orbit Information
数据来源 国际轨道数据 AOE轨道数据
星历时间 2026-06-16T23:05:11+0800
1天前
查看轨道信息
2026-06-18T01:00:00+0800
10小时前
查看轨道信息
半长轴 6861.183km 6861.202km
偏心率 0.0001738 0.0001727
轨道倾角 43.008° 43.001°
近地点辐角 277.377° 265.742°
升交点赤经 133.820° 127.724°
平近点角 82.689° 279.034°
近地点 481.853km 481.88km
远地点 484.239km 484.25km
周期 94.267分钟 94.267分钟
每日圈数 15.275812 15.275749
Detailed Information
固有亮度:
5
最大亮度:
1.5
卫星平台:
Starlink v2.0 mini
覆盖范围:
全球
运营商:
太空探索技术公司
运营商所在国:
美国
制造商(研发单位):
太空探索技术公司
制造商所在国:
美国
使用方式:
暂无
Satellite Introduction
星链(Starlink)计划是由太空探索技术公司(SpaceX)提出的一个巨型低轨卫星互联网星座项目,计划在2019年至2024年间在太空搭建由约1.2万颗卫星组成的“星链”网络,其中1584颗将部署在地球上空550千米处的近地轨道,并从2020年开始工作。该卫星仍在工作。
2D Orbit Map
3D Orbit Map
Orbit Altitude Analysis Chart
Orbit Inclination Analysis Chart
Orbit Comprehensive Analysis Chart
View Comprehensive Chart